Lapse_Rate
2.9 2.7 2.4 2.4 2.4 3.5 4.8 4.5 5.1 6.0 6.4 6.4 7.2 5.9 5.4 4.9 6.6 6.8 8.1 8.1 8.1 8.3 8.5 8.4 8.4 8.2 8.4 7.5 8.0 7.4 6.0 4.4 5.8 7.0 6.7 6.6 6.2 6.0 6.8 6.5 6.2 6.0 5.3
3.7 3.1 2.2 2.2 2.0 3.5 4.2 5.1 5.3 5.5 5.8 6.4 5.8 5.7 5.4 5.0 6.5 6.5 7.7 8.7 8.0 8.5 8.7 8.3 8.1 8.0 8.3 7.8 8.0 6.3 6.1 6.3 4.5 4.4 5.5 5.9 6.2 6.0 6.3 7.0 6.7 5.9 5.0
4.6 3.4 2.6 2.0 2.3 3.3 4.2 4.9 5.0 5.7 5.6 6.6 5.6 6.0 5.6 5.8 6.5 6.3 7.4 8.5 8.0 8.5 7.1 9.0 8.1 8.3 8.0 8.3 8.0 7.6 5.9 5.8 5.1 4.3 4.9 5.7 5.9 6.4 6.6 6.9 7.4 7.2 5.5
4.8 3.7 3.1 2.6 3.1 3.4 3.6 3.6 3.9 3.6 3.9 5.9 5.6 4.8 5.8 6.2 6.7 6.6 8.1 8.2 8.4 8.7 7.9 8.3 8.6 8.4 8.1 8.2 8.1 8.3 6.5 4.2 4.4 5.2 4.7 5.1 6.0 6.3 7.3 7.0 7.2 7.8 5.9
4.9 4.2 3.8 3.1 3.3 3.4 3.5 3.6 3.4 3.5 3.4 4.0 5.0 5.0 5.4 5.2 6.6 7.6 8.0 7.9 8.6 7.6 7.4 8.0 8.1 8.3 8.4 8.0 7.8 8.0 8.2 5.7 4.2 3.9 5.4 5.4 4.6 6.0 6.8 7.3 8.2 7.9 7.9
5.1 4.8 3.6 3.8 3.8 3.8 4.3 3.5 3.7 2.9 3.2 3.5 4.7 4.0 5.0 5.5 5.9 6.6 6.7 6.9 8.0 7.5 7.2 7.1 7.0 7.5 7.8 8.4 8.6 7.5 8.0 6.8 5.6 4.9 4.3 5.3 6.6 5.9 6.6 5.8 5.5 5.3 7.4
4.9 4.4 3.3 4.2 4.0 4.7 5.0 5.0 4.5 4.3 3.4 2.6 2.7 2.8 2.9 5.3 5.6 5.5 5.8 6.6 7.2 6.8 6.7 6.4 6.3 6.4 7.1 8.0 7.3 7.6 7.9 7.9 6.9 6.2 5.5 5.7 6.6 7.9 5.9 5.4 5.1 5.4 8.4
5.0 4.5 4.3 3.5 4.3 2.7 3.5 4.3 3.9 3.4 3.4 3.5 3.2 2.7 4.0 4.4 4.2 5.3 5.4 6.2 6.3 6.4 5.5 5.5 5.5 5.6 5.7 6.0 6.4 6.7 6.8 6.8 7.1 8.2 6.5 6.4 8.2 8.4 8.3 8.4 8.3 8.1 7.9
4.3 4.5 4.7 4.4 4.0 4.7 3.7 3.8 3.9 4.5 3.1 3.7 4.8 4.2 3.6 4.3 3.6 3.6 4.1 5.4 5.7 5.4 5.8 5.4 5.1 5.1 5.0 5.1 5.5 5.8 6.1 6.3 7.7 7.9 7.3 6.9 8.3 8.6 8.5 8.6 8.3 8.0 8.3
4.4 4.6 4.9 4.3 4.5 4.5 4.2 3.8 3.1 3.3 3.6 4.2 4.0 4.5 4.0 2.3 4.0 4.0 3.4 3.6 4.5 5.9 5.6 5.2 5.0 4.9 4.9 4.8 4.9 5.3 5.7 6.1 6.1 8.0 8.8 7.8 7.9 8.7 8.8 8.3 7.2 8.6 8.1
5.3 4.8 4.9 4.5 4.9 4.8 4.3 4.3 4.3 5.4 5.4 4.6 4.5 3.5 4.1 3.5 3.6 3.1 2.7 3.1 3.0 3.2 5.3 6.0 5.4 5.2 5.2 4.8 4.6 5.0 5.4 5.9 6.3 7.8 8.2 8.2 8.1 8.0 8.2 8.5 7.2 7.1 7.6
5.2 4.4 4.7 5.2 4.9 4.7 4.6 4.2 4.4 5.1 5.4 5.3 4.5 4.1 3.9 3.3 3.5 3.8 3.1 2.2 2.8 2.6 2.6 3.9 4.9 5.0 5.4 5.0 4.9 5.2 5.3 5.5 6.0 6.9 8.3 8.2 9.0 8.2 8.1 8.3 6.7 4.6 4.8
4.6 4.6 4.3 4.4 4.1 4.8 4.6 4.9 4.6 4.5 4.7 4.5 4.8 4.4 4.4 4.7 3.6 3.9 4.5 2.8 2.8 1.7 2.4 2.4 3.8 5.3 6.2 5.7 5.0 5.3 5.3 5.2 5.5 6.1 8.1 7.8 8.6 8.6 8.3 8.1 8.1 4.8 4.6
4.0 4.1 5.0 5.1 4.8 5.2 5.1 5.3 5.0 4.8 5.0 4.2 3.7 3.7 3.3 3.6 4.0 4.1 4.7 3.1 2.9 1.9 1.3 2.5 1.1 2.9 4.5 4.9 5.4 5.6 5.2 5.2 5.1 5.3 6.2 7.7 8.2 8.6 8.2 8.3 8.1 5.2 5.0
4.7 4.1 4.5 5.4 4.7 5.4 5.3 5.2 5.2 4.9 5.2 5.0 4.3 4.3 4.4 3.6 3.4 3.8 5.2 4.9 4.6 3.4 2.4 1.9 1.5 1.3 2.1 3.4 5.1 5.5 5.1 5.0 4.8 4.7 4.9 5.8 7.6 7.4 8.3 8.4 8.1 6.3 6.2
4.3 4.2 4.5 6.0 5.2 4.7 5.4 5.2 5.3 5.4 5.1 5.5 5.6 4.3 4.5 4.0 3.0 3.1 4.5 5.0 4.7 4.6 4.3 2.2 0.8 0.5 0.9 2.1 4.1 5.6 5.6 5.4 5.0 4.6 4.4 4.9 5.7 6.3 7.6 8.3 8.0 7.2 6.5
4.2 4.5 5.2 5.5 4.6 5.0 5.4 5.5 5.6 5.6 5.4 5.7 5.3 5.1 4.8 4.4 4.3 3.2 2.7 4.7 4.5 4.6 5.6 3.6 1.7 0.3 0.1 -0.0 1.6 2.6 4.0 3.9 4.3 4.5 4.4 4.5 4.9 5.3 6.0 6.8 7.1 6.8 6.4
4.6 4.4 5.2 5.5 5.7 5.5 5.9 5.9 5.9 6.1 5.8 5.7 5.5 5.1 5.2 5.0 4.4 3.7 4.1 4.4 4.8 4.3 4.9 4.8 2.3 1.1 0.3 0.0 1.0 0.6 1.4 2.1 2.7 3.6 4.2 4.2 4.6 4.8 5.1 5.5 6.3 6.5 6.1
4.1 3.9 4.6 4.8 5.2 5.1 5.1 5.6 5.8 6.1 5.8 6.1 5.9 5.3 5.3 5.2 5.0 5.0 4.5 4.9 5.2 5.4 4.7 4.2 2.9 1.0 0.1 -0.3 -0.0 0.1 0.2 1.0 1.7 2.6 3.4 3.5 4.1 4.4 4.7 4.6 5.3 5.8 5.8
4.4 4.4 4.8 4.9 5.4 5.8 5.8 6.0 6.1 6.1 6.0 5.9 6.0 5.9 5.8 5.7 5.9 5.7 5.2 5.3 4.8 4.0 4.1 3.8 3.1 2.5 1.7 0.3 0.5 0.6 0.6 -0.2 -0.0 1.5 2.1 2.6 3.0 3.5 3.8 4.1 4.6 4.9 4.9
4.5 4.6 4.6 5.1 5.1 5.3 5.4 5.4 5.6 5.9 5.8 5.9 6.3 6.1 5.9 5.8 4.3 5.7 5.6 5.2 4.8 4.4 4.3 4.6 3.4 2.9 1.7 1.1 1.4 0.7 0.9 0.6 -0.0 0.4 -0.1 0.9 1.4 1.8 2.4 3.3 3.2 3.6 4.0
4.7 4.5 4.7 4.7 4.7 4.8 4.0 3.6 4.8 5.6 5.9 6.0 6.1 5.6 5.3 2.6 3.1 3.1 3.3 3.7 5.0 4.9 5.0 4.6 4.7 4.2 3.0 2.3 1.2 2.1 1.7 1.0 2.1 0.1 0.1 0.4 0.8 0.2 1.2 2.2 3.1 3.3 3.6
4.7 4.5 3.8 3.9 4.0 3.7 2.8 3.4 3.8 5.7 5.5 5.5 5.4 5.4 5.3 5.0 3.6 4.9 3.7 3.6 3.4 3.7 4.7 4.9 5.3 4.5 4.2 2.9 2.3 1.6 1.9 1.4 1.5 0.2 0.0 1.1 -0.5 -0.2 0.9 1.7 2.4 3.2 3.0
4.3 4.3 4.1 4.2 3.7 3.3 2.6 3.1 3.3 4.7 5.2 5.7 5.8 5.7 5.4 4.4 4.1 4.2 4.4 3.9 3.7 3.9 4.2 4.2 5.1 5.2 4.9 3.3 3.5 3.5 3.4 1.9 0.8 0.3 1.0 2.2 -1.0 0.1 -0.5 0.7 1.4 2.0 2.4
3.4 4.5 4.2 3.8 3.5 2.6 1.7 2.7 3.3 4.3 4.6 5.3 5.5 5.7 5.5 4.9 3.3 3.3 4.4 4.4 4.1 3.4 4.2 4.7 4.5 5.0 4.8 4.2 3.5 1.8 1.7 1.5 1.0 0.6 -0.7 1.0 -0.7 -0.5 -1.4 -1.1 -0.1 0.4 1.5
3.7 3.8 4.4 3.9 3.1 2.4 2.1 2.7 3.1 4.4 4.7 4.6 4.6 4.8 3.3 4.2 3.1 3.0 4.8 4.3 3.9 3.3 2.1 1.9 2.3 2.7 3.9 3.4 2.9 3.2 1.3 0.1 -1.8 -1.2 -1.0 0.4 -1.3 0.0 0.7 -2.0 -1.5 -0.5 0.4
Wind_Speed
10 13 11 13 13 13 13 11 12 9 6 6 9 13 12 11 16 14 14 12 12 11 11 10 9 11 11 10 13 12 11 14 14 15 16 15 17 15 18 19 19 17 17
13 11 10 9 12 14 13 14 12 8 6 8 9 13 12 9 16 12 12 9 12 10 8 11 10 10 11 10 11 10 10 9 12 14 12 13 16 15 17 17 17 17 17
15 14 11 8 12 16 15 13 7 6 5 9 9 12 11 10 13 11 10 10 10 6 11 10 8 8 9 8 9 9 9 8 9 10 12 12 12 14 15 15 16 17 16
20 16 11 10 15 15 12 8 5 2 3 5 5 6 8 10 14 10 8 10 7 6 10 10 8 7 8 6 7 7 8 8 7 7 9 10 10 10 14 15 16 16 15
19 16 14 13 17 12 7 6 1 3 3 2 6 5 6 8 11 9 9 7 8 8 9 8 8 7 5 7 7 6 6 7 5 6 6 7 8 7 7 10 11 11 11
19 15 13 13 15 9 5 3 3 2 2 4 4 4 4 6 7 9 12 9 11 9 8 7 7 6 8 7 5 3 1 5 4 5 5 5 4 6 6 6 6 8 9
16 15 11 12 14 9 8 8 3 4 2 3 4 3 4 2 4 4 10 11 10 9 8 8 7 6 6 8 8 5 2 4 4 3 3 4 3 5 6 6 7 6 9
17 12 13 9 12 6 6 6 5 3 2 5 3 3 2 3 3 1 6 6 9 10 10 9 8 7 7 8 9 8 5 3 4 4 4 3 3 5 6 10 9 9 10
17 16 16 12 12 9 8 9 7 7 4 3 5 4 2 4 1 1 3 3 7 7 11 11 11 11 10 10 10 10 8 6 6 8 5 4 3 3 5 5 6 7 9
14 17 18 16 13 10 7 8 5 5 5 8 2 1 3 5 3 1 2 2 3 6 8 12 12 13 13 13 13 13 11 9 6 6 6 5 5 6 5 6 5 5 7
11 13 16 16 12 11 8 7 8 7 6 6 5 3 2 1 2 2 2 3 2 3 7 12 17 14 14 16 15 16 14 12 9 8 7 8 7 7 6 5 4 4 4
4 8 11 14 15 11 8 7 8 9 9 5 6 3 4 4 3 3 2 3 4 3 4 7 11 17 19 17 18 19 17 15 12 11 9 11 9 7 7 6 5 4 3
4 7 8 7 6 12 14 13 9 9 8 7 9 6 4 4 3 3 3 2 2 3 2 3 12 14 19 22 21 21 20 19 16 13 14 11 11 10 8 8 7 6 6
7 7 9 12 12 13 12 12 7 7 8 7 6 5 4 4 3 3 4 4 1 1 1 4 5 14 17 20 24 22 21 20 18 16 14 13 7 12 11 11 10 8 7
7 7 11 9 10 11 11 10 6 8 7 8 8 7 5 4 4 4 4 3 4 4 5 4 3 11 17 19 22 22 22 21 21 20 18 16 13 9 15 15 13 14 12
8 8 10 10 9 9 10 9 8 8 9 7 8 8 8 5 5 4 4 4 3 5 4 5 5 2 9 13 20 21 21 22 21 21 20 20 17 12 11 17 17 18 17
10 12 12 11 10 10 10 10 10 10 11 10 9 11 12 10 7 5 4 4 4 3 5 2 2 5 4 6 10 18 20 20 20 21 21 19 20 17 14 16 17 20 21
8 10 11 11 10 11 10 11 11 10 11 11 11 10 12 8 10 7 7 9 7 5 4 5 4 4 5 5 5 7 12 16 20 20 20 19 19 20 20 17 18 18 21
5 6 7 8 8 9 9 10 11 11 10 12 12 12 13 12 11 10 9 9 9 7 4 3 4 1 2 2 2 2 5 10 14 18 19 19 21 20 21 21 21 21 20
7 6 8 8 9 10 10 10 10 10 10 10 11 12 13 13 14 13 12 13 10 7 7 4 3 3 2 0 1 2 3 4 4 12 17 18 18 20 20 19 24 24 23
5 6 6 6 7 8 7 10 10 11 11 11 11 11 11 14 16 16 10 11 11 9 8 8 3 3 3 3 3 2 4 1 4 9 4 9 12 13 16 21 21 23 24
6 6 7 7 7 7 10 13 11 10 10 11 11 11 8 9 11 13 15 14 14 12 11 9 7 4 4 4 4 4 2 2 3 7 3 3 11 5 14 19 21 21 22
7 8 7 7 8 8 11 13 14 8 8 8 9 8 7 7 10 11 15 19 18 16 16 12 11 6 6 8 7 5 4 4 4 2 3 2 3 4 11 16 18 19 18
7 9 9 9 7 8 12 14 13 9 7 9 9 9 10 8 8 9 10 9 10 10 12 6 9 10 9 8 10 8 8 4 2 1 2 2 1 2 1 6 8 11 13
8 7 7 8 9 8 11 12 9 7 8 9 9 9 9 8 10 14 8 8 8 8 13 19 17 15 15 15 17 5 4 3 3 3 4 3 2 1 1 1 2 2 3
9 6 8 7 10 9 12 13 11 6 8 7 7 8 13 10 12 15 11 9 9 9 7 4 4 6 14 16 23 14 7 4 3 1 4 4 3 2 1 1 3 5 1
Wind_Direction
149 151 157 158 149 148 147 149 152 159 181 125 127 130 122 124 121 119 114 121 119 121 113 118 107 110 101 96 88 90 87 88 84 67 58 52 58 77 85 82 74 65 63
154 154 157 166 166 167 164 165 172 188 192 137 125 124 124 129 124 130 129 117 123 131 122 116 105 99 105 90 99 91 85 84 87 92 79 63 58 71 85 84 79 70 64
163 160 162 170 183 182 177 176 160 207 229 127 128 130 134 136 131 134 132 130 132 119 131 105 115 118 108 103 96 102 90 87 96 95 98 86 67 69 78 77 78 73 65
170 163 165 177 186 186 185 174 157 131 181 139 126 135 138 137 140 156 134 133 136 133 123 124 108 98 115 114 115 108 106 94 90 90 80 97 87 72 75 75 73 72 68
175 168 173 175 178 181 187 161 130 133 166 128 122 132 148 140 155 159 146 142 135 131 129 125 134 144 138 121 107 107 108 103 93 92 64 72 93 92 81 67 57 58 64
175 174 170 170 168 175 180 160 148 107 167 139 98 88 137 152 172 156 163 163 157 164 152 148 146 144 138 132 137 148 172 125 115 99 82 74 63 103 103 89 75 76 83
175 163 156 163 169 179 178 174 135 146 99 128 104 53 21 72 157 148 160 173 162 171 165 168 173 172 172 165 149 165 120 146 143 112 100 96 96 94 93 107 108 104 94
177 173 167 164 176 155 155 161 147 128 101 178 125 104 71 350 341 261 169 176 165 176 178 197 196 195 187 168 164 172 183 181 188 152 128 140 110 107 110 90 103 115 102
178 172 172 171 172 180 180 177 165 163 147 200 195 139 126 217 162 303 268 204 164 177 198 204 211 209 202 195 187 184 187 203 219 180 158 168 176 141 120 106 89 115 107
177 182 180 172 175 174 178 183 179 162 140 182 209 134 115 142 177 247 281 261 235 177 185 197 207 211 208 204 205 201 196 205 226 219 202 188 199 183 158 142 140 118 108
175 182 182 169 181 182 181 181 180 177 181 169 186 147 127 132 117 136 208 246 310 247 203 191 202 208 210 213 213 213 210 213 219 239 216 195 211 180 159 153 156 143 145
183 182 185 185 183 181 181 179 186 193 182 177 195 187 178 166 182 154 143 199 220 250 227 230 197 204 213 215 217 215 214 220 222 228 236 218 210 204 196 189 189 183 201
191 198 184 185 183 182 185 188 190 191 196 186 189 199 194 204 150 148 131 152 201 235 234 231 219 215 208 215 217 218 220 221 224 229 243 236 221 220 217 204 202 209 205
209 194 196 193 191 185 187 188 190 197 194 200 191 194 191 201 171 163 165 142 120 270 301 249 231 218 223 207 216 220 218 218 223 229 238 249 231 220 222 214 205 202 219
201 185 196 194 191 185 185 186 190 194 190 198 208 203 198 203 197 192 187 170 161 187 229 245 226 222 220 219 218 216 222 222 227 232 232 237 250 235 222 215 206 188 202
180 180 190 190 188 181 186 192 201 199 197 199 207 206 212 209 202 197 204 203 188 174 212 205 225 219 219 218 226 218 222 229 228 228 229 231 238 239 236 214 204 201 206
192 190 194 192 188 192 194 198 203 203 202 206 202 201 215 217 218 203 193 202 207 179 215 255 207 207 220 204 214 219 223 226 231 234 233 232 236 237 239 234 223 214 212
194 198 193 196 184 195 198 201 206 206 205 210 207 205 216 207 218 207 207 220 222 210 178 189 196 211 220 215 207 201 220 230 234 234 235 236 238 240 237 237 239 231 221
178 174 177 186 189 196 195 202 207 209 209 216 216 208 215 211 215 215 209 216 221 216 192 161 172 175 185 188 146 207 211 223 242 246 237 236 239 240 241 238 241 238 232
177 188 189 190 200 201 206 211 217 219 220 219 220 220 219 219 221 216 211 213 210 195 199 171 155 153 186 146 109 179 232 221 214 235 244 237 234 237 239 243 242 243 239
204 192 174 191 206 203 204 207 213 219 223 226 229 227 227 227 224 224 208 211 204 204 201 201 169 156 175 170 182 224 217 197 244 206 204 225 225 235 245 244 238 240 244
211 201 200 199 206 216 210 206 208 219 221 230 233 222 217 211 217 222 220 211 197 201 200 194 188 181 186 187 150 199 171 141 265 197 191 258 200 216 230 240 244 242 242
207 205 209 203 213 218 213 215 212 218 214 222 224 220 219 215 208 222 227 215 200 197 197 196 196 198 187 193 169 163 190 198 213 222 131 244 190 229 232 241 246 250 249
243 211 207 205 213 231 217 213 209 217 218 221 223 219 217 206 200 202 200 201 210 212 213 201 201 207 207 183 188 192 200 166 67 213 179 197 150 236 314 247 245 249 253
318 230 210 199 210 227 217 214 203 214 219 226 222 222 217 220 199 192 197 198 207 217 217 213 206 207 193 175 173 127 162 141 212 238 208 136 199 219 25 12 356 334 269
296 303 228 207 213 221 210 213 202 211 215 221 219 219 209 208 190 192 202 200 206 211 186 180 207 207 198 197 186 188 165 159 146 353 205 173 163 160 335 33 41 25 322